HAZ2224 ZGKL-ZSHC

Flight info

Callsign HAZ2224
Flight time N/A
Altitude 37100
Route QP9Y QP G586 WYN R473 NNX A599 ELNEX ELN92A
Aircraft A320/M-SDE3FGHIRWY/LB1

Departure

Time 2026-05-07 10:46
Airport Guilin Liangjiang International Airport (ZGKL)

Arrival

Time N/A
Airport Hangzhou Xiaoshan International Airport (ZSHC)
Time Latitude Longitude Altitude Speed Heading
2026-05-07 10:08 25.21064 110.04362 561 ft 0 kts
2026-05-07 10:36 25.21055 110.04361 561 ft 2 kts
2026-05-07 10:36 25.21040 110.04359 561 ft 2 kts
2026-05-07 10:36 25.21026 110.04359 562 ft 2 kts
2026-05-07 10:37 25.21013 110.04357 562 ft 0 kts
2026-05-07 10:37 25.21001 110.04357 563 ft 2 kts 336°
2026-05-07 10:37 25.20992 110.04364 563 ft 2 kts 312°
2026-05-07 10:37 25.20985 110.04377 563 ft 0 kts 280°
2026-05-07 10:38 25.20985 110.04384 563 ft 1 kts 272°
2026-05-07 10:38 25.20985 110.04387 563 ft 0 kts 274°
2026-05-07 10:42 25.20985 110.04383 563 ft 0 kts 274°
2026-05-07 10:42 25.20987 110.04356 564 ft 4 kts 275°
2026-05-07 10:42 25.20991 110.04315 564 ft 7 kts 276°
2026-05-07 10:42 25.20997 110.04235 564 ft 12 kts 275°
2026-05-07 10:43 25.21006 110.04128 564 ft 15 kts 276°
2026-05-07 10:43 25.20967 110.04044 565 ft 11 kts 199°
2026-05-07 10:43 25.20893 110.04033 566 ft 10 kts 185°
2026-05-07 10:43 25.20808 110.04026 568 ft 13 kts 185°
2026-05-07 10:44 25.20700 110.04016 568 ft 17 kts 184°
2026-05-07 10:44 25.20587 110.04001 567 ft 13 kts 202°
2026-05-07 10:44 25.20559 110.03905 566 ft 15 kts 274°
2026-05-07 10:44 25.20628 110.03825 564 ft 19 kts 352°
2026-05-07 10:45 25.20814 110.03836 564 ft 45 kts
2026-05-07 10:45 25.21377 110.03892 555 ft 115 kts
2026-05-07 10:45 25.22379 110.03993 605 ft 164 kts
2026-05-07 10:45 25.23542 110.04094 1082 ft 174 kts
2026-05-07 10:46 25.24722 110.04218 1914 ft 167 kts
2026-05-07 10:46 25.25842 110.04330 2632 ft 164 kts
2026-05-07 10:46 25.27030 110.04449 3013 ft 180 kts
2026-05-07 10:46 25.28334 110.04578 3355 ft 200 kts
2026-05-07 10:47 25.29808 110.04741 3741 ft 220 kts 12°
2026-05-07 10:47 25.31208 110.05458 4189 ft 235 kts 44°
2026-05-07 10:47 25.32057 110.07024 4882 ft 244 kts 75°
2026-05-07 10:47 25.32171 110.08887 5635 ft 249 kts 88°
2026-05-07 10:48 25.32189 110.10815 6367 ft 254 kts 87°
2026-05-07 10:48 25.32221 110.12775 7095 ft 259 kts 88°
2026-05-07 10:48 25.31957 110.14719 7791 ft 266 kts 112°
2026-05-07 10:48 25.30910 110.16428 8536 ft 270 kts 133°
2026-05-07 10:49 25.29583 110.17876 9227 ft 274 kts 137°
2026-05-07 10:49 25.28191 110.19327 9680 ft 276 kts 136°
2026-05-07 10:49 25.26801 110.20820 9860 ft 278 kts 136°
2026-05-07 10:49 25.25434 110.22338 9864 ft 278 kts 135°
2026-05-07 10:50 25.24094 110.23859 9867 ft 279 kts 135°
2026-05-07 10:50 25.22733 110.25417 9863 ft 279 kts 134°
2026-05-07 10:50 25.21405 110.26945 9864 ft 278 kts 135°
2026-05-07 10:50 25.20056 110.28503 9866 ft 279 kts 135°
2026-05-07 10:51 25.18705 110.30062 9870 ft 279 kts 134°
2026-05-07 10:51 25.17351 110.31593 9871 ft 279 kts 137°
2026-05-07 10:51 25.15900 110.33015 9909 ft 284 kts 141°
2026-05-07 10:51 25.14323 110.34466 10189 ft 302 kts 141°
2026-05-07 10:52 25.12665 110.35981 10546 ft 319 kts 142°
2026-05-07 10:52 25.10915 110.37580 10868 ft 337 kts 142°
2026-05-07 10:52 25.09052 110.39283 11166 ft 354 kts 140°
2026-05-07 10:52 25.07146 110.41023 11622 ft 363 kts 141°
2026-05-07 10:53 25.05187 110.42820 12238 ft 367 kts 141°
2026-05-07 10:53 25.03216 110.44633 12816 ft 371 kts 142°
2026-05-07 10:53 25.01240 110.46443 13382 ft 375 kts 142°
2026-05-07 10:53 24.99210 110.48299 13948 ft 378 kts 142°
2026-05-07 10:54 24.97186 110.50150 14452 ft 382 kts 142°
2026-05-07 10:54 24.95141 110.52018 14987 ft 385 kts 142°
2026-05-07 10:54 24.93067 110.53914 15547 ft 387 kts 142°
2026-05-07 10:54 24.90993 110.55808 16040 ft 391 kts 142°
2026-05-07 10:55 24.88875 110.57741 16504 ft 395 kts 142°
2026-05-07 10:55 24.86762 110.59669 16958 ft 398 kts 142°
2026-05-07 10:55 24.84633 110.61612 17387 ft 402 kts 142°
2026-05-07 10:55 24.82468 110.63587 17815 ft 406 kts 142°
2026-05-07 10:56 24.80282 110.65579 18229 ft 409 kts 142°
2026-05-07 10:56 24.78058 110.67609 18638 ft 413 kts 142°
2026-05-07 10:56 24.75842 110.69627 19049 ft 416 kts 142°
2026-05-07 10:56 24.73601 110.71667 19439 ft 419 kts 142°
2026-05-07 10:57 24.71370 110.73696 19819 ft 422 kts 142°
2026-05-07 10:57 24.69130 110.75818 20179 ft 427 kts 136°
2026-05-07 10:57 24.67403 110.78478 20516 ft 432 kts 115°
2026-05-07 10:57 24.66523 110.81623 20872 ft 433 kts 97°
2026-05-07 10:58 24.66237 110.84911 21271 ft 434 kts 93°
2026-05-07 10:58 24.66012 110.88216 21617 ft 438 kts 92°
2026-05-07 10:58 24.65775 110.91578 21987 ft 440 kts 93°
2026-05-07 10:58 24.65523 110.94904 22316 ft 443 kts 93°
2026-05-07 10:59 24.65251 110.98302 22673 ft 445 kts 93°